,,Stat5,,Stat1,,Stat2,,Stat3,,Stat4,,Wind1,,Wind1,
time,status,PA1M_AVG,status,PR1M_SUM,status,RH1M_AVG,status,SR1M_AVG,status,TA1M_AVG,status,W1dAve1m,status,W1sAve1m,
2001-09-13, 00:00:00,VALID,917.887,VALID,0,VALID,96.75,VALID,0,VALID,20.7342,VALID,347,VALID,0.0286458,
2001-09-13, 00:01:00,VALID,917.867,VALID,0,VALID,96.7755,VALID,0.101885,VALID,20.7232,VALID,29,VALID,0.0319196,
2001-09-13, 00:02:00,VALID,917.844,VALID,0,VALID,96.8518,VALID,0.101885,VALID,20.713,VALID,87,VALID,0.0620777,
2001-09-13, 00:03:00,VALID,917.83,VALID,0,VALID,96.8645,VALID,0.101885,VALID,20.7197,VALID,147,VALID,0.350329,
2001-09-13, 00:04:00,VALID,917.844,VALID,0,VALID,96.8467,VALID,0.0849042,VALID,20.7038,VALID,154,VALID,0.346917,
2001-09-13, 00:05:00,VALID,917.848,VALID,0,VALID,96.9077,VALID,0.118866,VALID,20.7003,VALID,154,VALID,0.304265,
2001-09-13, 00:06:00,VALID,917.859,VALID,0,VALID,96.9611,VALID,0.0849042,VALID,20.7041,VALID,156,VALID,0.344439,
2001-09-13, 00:07:00,VALID,917.878,VALID,0,VALID,96.9459,VALID,0.118866,VALID,20.6844,VALID,164,VALID,0.461782,
2001-09-13, 00:08:00,VALID,917.877,VALID,0,VALID,96.9293,VALID,0.0679233,VALID,20.6815,VALID,164,VALID,0.483073,
2001-09-13, 00:09:00,VALID,917.88,VALID,0,VALID,96.9764,VALID,0.101885,VALID,20.6753,VALID,171,VALID,0.320524,
2001-09-13, 00:10:00,VALID,917.847,VALID,0,VALID,96.9726,VALID,0.101885,VALID,20.6618,VALID,171,VALID,0.207559,
2001-09-13, 00:11:00,VALID,917.816,VALID,0,VALID,96.9471,VALID,0.0679233,VALID,20.6651,VALID,171,VALID,0.313281,
2001-09-13, 00:12:00,VALID,917.797,VALID,0,VALID,96.9153,VALID,0.101885,VALID,20.6713,VALID,188,VALID,0.245192,
2001-09-13, 00:13:00,VALID,917.784,VALID,0,VALID,96.9522,VALID,0.101885,VALID,20.6718,VALID,179,VALID,0.188086,
2001-09-13, 00:14:00,VALID,917.795,VALID,0,VALID,96.9548,VALID,0.101885,VALID,20.6812,VALID,137,VALID,0.38199,
2001-09-13, 00:15:00,VALID,917.785,VALID,0,VALID,96.9281,VALID,0.101885,VALID,20.6842,VALID,154,VALID,0.176367,
2001-09-13, 00:16:00,VALID,917.787,VALID,0,VALID,96.8937,VALID,0,VALID,20.689,VALID,151,VALID,0.335337,
2001-09-13, 00:17:00,VALID,917.79,VALID,0,VALID,96.8085,VALID,0,VALID,20.6726,VALID,136,VALID,0.556836,
2001-09-13, 00:18:00,VALID,917.773,VALID,0,VALID,96.8022,VALID,0,VALID,20.6636,VALID,130,VALID,0.524671,
2001-09-13, 00:19:00,VALID,917.738,VALID,0,VALID,96.6788,VALID,0,VALID,20.6507,VALID,150,VALID,0.747852,
2001-09-13, 00:20:00,VALID,917.715,VALID,0,VALID,96.5122,VALID,-0.0169808,VALID,20.6152,VALID,141,VALID,0.765625,
2001-09-13, 00:21:00,VALID,917.666,VALID,0,VALID,96.3698,VALID,-0.0169808,VALID,20.5764,VALID,133,VALID,0.489062,
2001-09-13, 00:22:00,VALID,917.64,VALID,0,VALID,96.4894,VALID,0,VALID,20.57,VALID,151,VALID,0.352385,
2001-09-13, 00:23:00,VALID,917.642,VALID,0,VALID,96.5529,VALID,-0.0339617,VALID,20.5891,VALID,150,VALID,0.283008,
2001-09-13, 00:24:00,VALID,917.608,VALID,0,VALID,96.5771,VALID,-0.0509425,VALID,20.5893,VALID,100,VALID,0.339744,
2001-09-13, 00:25:00,VALID,917.602,VALID,0,VALID,96.5695,VALID,-0.0169808,VALID,20.5988,VALID,106,VALID,0.483398,
2001-09-13, 00:26:00,VALID,917.605,VALID,0,VALID,96.6292,VALID,0,VALID,20.609,VALID,111,VALID,0.673931,
2001-09-13, 00:27:00,VALID,917.578,VALID,0,VALID,96.7538,VALID,0.0169808,VALID,20.5958,VALID,126,VALID,0.460938,
2001-09-13, 00:28:00,VALID,917.568,VALID,0,VALID,96.9382,VALID,-0.0679233,VALID,20.5866,VALID,194,VALID,0.128125,
2001-09-13, 00:29:00,VALID,917.549,VALID,0,VALID,96.9967,VALID,-0.0679233,VALID,20.5834,VALID,194,VALID,0.0234375,
2001-09-13, 00:30:00,VALID,917.543,VALID,0,VALID,97.0514,VALID,-0.0339617,VALID,20.5764,VALID,194,VALID,0,
2001-09-13, 00:31:00,VALID,917.533,VALID,0,VALID,97.0908,VALID,-0.0339617,VALID,20.5807,VALID,194,VALID,0,
2001-09-13, 00:32:00,VALID,917.524,VALID,0,VALID,97.143,VALID,-0.0509425,VALID,20.5737,VALID,194,VALID,0,
2001-09-13, 00:33:00,VALID,917.533,VALID,0,VALID,97.1506,VALID,-0.0509425,VALID,20.5734,VALID,194,VALID,0,
2001-09-13, 00:34:00,VALID,917.525,VALID,0,VALID,97.2065,VALID,-0.0339617,VALID,20.5734,VALID,194,VALID,0,
2001-09-13, 00:35:00,VALID,917.519,VALID,0,VALID,97.2612,VALID,-0.0679233,VALID,20.5737,VALID,157,VALID,0.229492,
2001-09-13, 00:36:00,VALID,917.513,VALID,0,VALID,97.2663,VALID,-0.101885,VALID,20.5774,VALID,159,VALID,0.442909,
2001-09-13, 00:37:00,VALID,917.504,VALID,0,VALID,97.2663,VALID,-0.0339617,VALID,20.5705,VALID,145,VALID,0.565234,
2001-09-13, 00:38:00,VALID,917.476,VALID,0,VALID,97.2701,VALID,0,VALID,20.5575,VALID,154,VALID,0.76398,
2001-09-13, 00:39:01,VALID,917.467,VALID,0,VALID,97.3172,VALID,-0.0339617,VALID,20.5285,VALID,153,VALID,0.89668,
2001-09-13, 00:40:00,VALID,917.442,VALID,0,VALID,97.3706,VALID,-0.0169808,VALID,20.5064,VALID,145,VALID,0.801883,
2001-09-13, 00:41:00,VALID,917.434,VALID,0,VALID,97.466,VALID,-0.0339617,VALID,20.4733,VALID,141,VALID,0.860156,
2001-09-13, 00:42:00,VALID,917.427,VALID,0,VALID,97.5842,VALID,-0.0169808,VALID,20.4512,VALID,156,VALID,0.906456,
2001-09-13, 00:43:00,VALID,917.432,VALID,0,VALID,97.6783,VALID,-0.0339617,VALID,20.4377,VALID,146,VALID,0.973437,
2001-09-13, 00:44:00,VALID,917.412,VALID,0,VALID,97.7927,VALID,-0.0339617,VALID,20.4315,VALID,161,VALID,0.855769,
2001-09-13, 00:45:01,VALID,917.398,VALID,0,VALID,97.8538,VALID,-0.0339617,VALID,20.4256,VALID,171,VALID,0.804492,
2001-09-13, 00:46:00,VALID,917.374,VALID,0,VALID,97.9212,VALID,0.0339617,VALID,20.4208,VALID,189,VALID,0.614515,
2001-09-13, 00:47:00,VALID,917.359,VALID,0,VALID,97.9466,VALID,0.101885,VALID,20.4106,VALID,168,VALID,0.982031,
2001-09-13, 00:48:00,VALID,917.349,VALID,0,VALID,97.9034,VALID,0.0849042,VALID,20.3848,VALID,160,VALID,1.03846,
2001-09-13, 00:49:00,VALID,917.338,VALID,0,VALID,97.8411,VALID,0.0509425,VALID,20.3492,VALID,175,VALID,1.14902,
2001-09-13, 00:50:00,VALID,917.306,VALID,0,VALID,97.8106,VALID,0.101885,VALID,20.3199,VALID,190,VALID,0.80037,
2001-09-13, 00:51:01,VALID,917.267,VALID,0,VALID,97.7508,VALID,0.101885,VALID,20.3169,VALID,187,VALID,1.21777,
2001-09-13, 00:52:00,VALID,917.24,VALID,0,VALID,97.6071,VALID,0.0679233,VALID,20.3075,VALID,136,VALID,0.729768,
2001-09-13, 00:53:00,VALID,917.222,VALID,0,VALID,97.5041,VALID,0.101885,VALID,20.2777,VALID,153,VALID,0.893555,
2001-09-13, 00:54:00,VALID,917.19,VALID,0,VALID,97.3579,VALID,0.0849042,VALID,20.2518,VALID,168,VALID,1.49692,
2001-09-13, 00:55:00,VALID,917.147,VALID,0,VALID,97.0311,VALID,0.0849042,VALID,20.2558,VALID,159,VALID,2.03027,
2001-09-13, 00:56:00,VALID,917.118,VALID,0,VALID,96.8416,VALID,0.0849042,VALID,20.2615,VALID,161,VALID,1.57652,
2001-09-13, 00:57:01,VALID,917.097,VALID,0,VALID,96.7119,VALID,0.101885,VALID,20.2844,VALID,156,VALID,1.24863,
2001-09-13, 00:58:00,VALID,917.096,VALID,0,VALID,96.5987,VALID,0.101885,VALID,20.2938,VALID,167,VALID,1.03454,
2001-09-13, 00:59:00,VALID,917.093,VALID,0,VALID,96.5135,VALID,0.0849042,VALID,20.301,VALID,180,VALID,0.895312,
2001-09-13, 01:00:00,VALID,917.105,VALID,0,VALID,96.408,VALID,0.0849042,VALID,20.3174,VALID,158,VALID,0.760817,
2001-09-13, 01:01:00,VALID,917.125,VALID,0,VALID,96.4169,VALID,0,VALID,20.3123,VALID,161,VALID,1.07832,
2001-09-13, 01:02:00,VALID,917.139,VALID,0,VALID,96.4003,VALID,-0.0169808,VALID,20.3026,VALID,164,VALID,0.934827,
2001-09-13, 01:03:01,VALID,917.142,VALID,0,VALID,96.2834,VALID,-0.0339617,VALID,20.2862,VALID,156,VALID,1.14902,
2001-09-13, 01:04:00,VALID,917.134,VALID,0,VALID,96.2859,VALID,-0.0169808,VALID,20.2737,VALID,158,VALID,0.977965,
2001-09-13, 01:05:00,VALID,917.131,VALID,0,VALID,96.3406,VALID,-0.0339617,VALID,20.2735,VALID,156,VALID,0.812695,
2001-09-13, 01:06:00,VALID,917.134,VALID,0,VALID,96.2465,VALID,0,VALID,20.2735,VALID,158,VALID,0.507607,
2001-09-13, 01:07:00,VALID,917.131,VALID,0,VALID,96.2655,VALID,0,VALID,20.2573,VALID,158,VALID,0.199023,
2001-09-13, 01:08:00,VALID,917.122,VALID,0,VALID,96.2592,VALID,0,VALID,20.2638,VALID,172,VALID,0.244391,
2001-09-13, 01:09:01,VALID,917.098,VALID,0,VALID,96.1702,VALID,-0.0169808,VALID,20.2278,VALID,173,VALID,0.340234,
2001-09-13, 01:10:00,VALID,917.089,VALID,0,VALID,96.1511,VALID,-0.0169808,VALID,20.2186,VALID,150,VALID,0.763569,
2001-09-13, 01:11:00,VALID,917.062,VALID,0,VALID,96.3075,VALID,0,VALID,20.186,VALID,153,VALID,1.1082,
2001-09-13, 01:12:00,VALID,917.034,VALID,0,VALID,96.3596,VALID,-0.0169808,VALID,20.1699,VALID,146,VALID,0.842949,
2001-09-13, 01:13:00,VALID,916.987,VALID,0,VALID,96.3037,VALID,0,VALID,20.1448,VALID,142,VALID,0.545508,
2001-09-13, 01:14:00,VALID,916.955,VALID,0,VALID,96.4385,VALID,0,VALID,20.1154,VALID,143,VALID,1.16653,
2001-09-13, 01:15:01,VALID,916.926,VALID,0,VALID,96.572,VALID,0,VALID,20.1187,VALID,126,VALID,1.02891,
2001-09-13, 01:16:00,VALID,916.901,VALID,0,VALID,96.6865,VALID,0,VALID,20.106,VALID,129,VALID,1.20633,
2001-09-13, 01:17:00,VALID,916.881,VALID,0,VALID,96.8619,VALID,-0.0339617,VALID,20.1058,VALID,143,VALID,1.19395,
2001-09-13, 01:18:00,VALID,916.849,VALID,0,VALID,97.012,VALID,-0.0169808,VALID,20.1222,VALID,143,VALID,0.815995,
2001-09-13, 01:19:00,VALID,916.851,VALID,0,VALID,96.9586,VALID,0,VALID,20.1219,VALID,149,VALID,0.761133,
2001-09-13, 01:20:00,VALID,916.839,VALID,0,VALID,96.8505,VALID,-0.0169808,VALID,20.1058,VALID,151,VALID,1.13482,
2001-09-13, 01:21:01,VALID,916.842,VALID,0,VALID,96.834,VALID,-0.0169808,VALID,20.1001,VALID,144,VALID,1.22676,
2001-09-13, 01:22:00,VALID,916.866,VALID,0,VALID,96.7551,VALID,0,VALID,20.0963,VALID,153,VALID,0.945724,
2001-09-13, 01:23:00,VALID,916.855,VALID,0,VALID,96.6941,VALID,0,VALID,20.0834,VALID,153,VALID,1.21309,
2001-09-13, 01:24:00,VALID,916.868,VALID,0,VALID,96.5911,VALID,-0.0169808,VALID,20.0869,VALID,143,VALID,1.20893,
2001-09-13, 01:25:00,VALID,916.859,VALID,0,VALID,96.3876,VALID,-0.0339617,VALID,20.0735,VALID,136,VALID,0.666602,
2001-09-13, 01:26:00,VALID,916.867,VALID,0,VALID,96.3151,VALID,0,VALID,20.0705,VALID,153,VALID,1.07915,
2001-09-13, 01:27:01,VALID,916.857,VALID,0,VALID,96.277,VALID,0,VALID,20.0672,VALID,146,VALID,0.502148,
2001-09-13, 01:28:00,VALID,916.831,VALID,0,VALID,96.2681,VALID,0,VALID,20.064,VALID,152,VALID,0.612981,
2001-09-13, 01:29:01,VALID,916.835,VALID,0,VALID,96.2414,VALID,-0.0169808,VALID,20.0613,VALID,142,VALID,0.946289,
2001-09-13, 01:30:00,VALID,916.837,VALID,0,VALID,96.1994,VALID,-0.0169808,VALID,20.0417,VALID,144,VALID,1.06435,
2001-09-13, 01:31:00,VALID,916.845,VALID,0,VALID,96.1384,VALID,0,VALID,20.0252,VALID,122,VALID,0.459961,
2001-09-13, 01:32:00,VALID,916.851,VALID,0,VALID,96.1448,VALID,0,VALID,20.0282,VALID,122,VALID,0.46274,
2001-09-13, 01:33:01,VALID,916.843,VALID,0,VALID,96.1257,VALID,-0.0169808,VALID,20.0123,VALID,118,VALID,0.435937,
2001-09-13, 01:34:00,VALID,916.824,VALID,0,VALID,96.1168,VALID,-0.0169808,VALID,19.9991,VALID,117,VALID,0.194079,
2001-09-13, 01:35:00,VALID,916.802,VALID,0,VALID,96.1549,VALID,0.0169808,VALID,19.9862,VALID,103,VALID,0,
2001-09-13, 01:36:00,VALID,916.792,VALID,0,VALID,96.2961,VALID,0,VALID,19.9897,VALID,103,VALID,0,
2001-09-13, 01:37:01,VALID,916.766,VALID,0,VALID,96.3151,VALID,0.0169808,VALID,19.9765,VALID,103,VALID,0,
2001-09-13, 01:38:00,VALID,916.747,VALID,0,VALID,96.1511,VALID,0,VALID,19.9507,VALID,103,VALID,0,
2001-09-13, 01:39:01,VALID,916.714,VALID,0,VALID,96.01,VALID,-0.0169808,VALID,19.9122,VALID,103,VALID,0,
2001-09-13, 01:40:00,VALID,916.706,VALID,0,VALID,95.7455,VALID,0,VALID,19.854,VALID,103,VALID,0,
2001-09-13, 01:41:01,VALID,916.678,VALID,0,VALID,95.2508,VALID,-0.0339617,VALID,19.741,VALID,56,VALID,0,
2001-09-13, 01:42:00,VALID,916.678,VALID,0,VALID,95.1961,VALID,0,VALID,19.6279,VALID,23,VALID,0.138775,
2001-09-13, 01:43:01,VALID,916.677,VALID,0,VALID,95.1987,VALID,0,VALID,19.5573,VALID,14,VALID,0.401953,
2001-09-13, 01:44:00,VALID,916.694,VALID,0,VALID,95.6234,VALID,-0.0169808,VALID,19.4955,VALID,15,VALID,0.419671,
2001-09-13, 01:45:01,VALID,916.702,VALID,0,VALID,96.1142,VALID,0,VALID,19.4667,VALID,16,VALID,0.414453,
2001-09-13, 01:46:00,VALID,916.714,VALID,0,VALID,96.3431,VALID,-0.101885,VALID,19.4261,VALID,25,VALID,0.616776,
2001-09-13, 01:47:01,VALID,916.735,VALID,0,VALID,96.7513,VALID,-0.118866,VALID,19.3774,VALID,35,VALID,0.639844,
2001-09-13, 01:48:00,VALID,916.733,VALID,0,VALID,97.1455,VALID,-0.118866,VALID,19.3618,VALID,34,VALID,0.499199,
2001-09-13, 01:49:01,VALID,916.747,VALID,0,VALID,97.396,VALID,-0.118866,VALID,19.3292,VALID,18,VALID,0.481055,
2001-09-13, 01:50:00,VALID,916.723,VALID,0,VALID,97.6147,VALID,-0.118866,VALID,19.3235,VALID,29,VALID,0.609786,
2001-09-13, 01:51:01,VALID,916.708,VALID,0,VALID,97.7966,VALID,-0.118866,VALID,19.3103,VALID,35,VALID,0.457422,
2001-09-13, 01:52:00,VALID,916.683,VALID,0,VALID,97.897,VALID,-0.135847,VALID,19.2877,VALID,42,VALID,0.572716,
2001-09-13, 01:53:01,VALID,916.644,VALID,0,VALID,97.9441,VALID,-0.135847,VALID,19.2492,VALID,34,VALID,0.356445,
2001-09-13, 01:54:01,VALID,916.619,VALID,0,VALID,98.0331,VALID,-0.101885,VALID,19.2229,VALID,33,VALID,0.0485197,
2001-09-13, 01:55:01,VALID,916.589,VALID,0,VALID,98.131,VALID,-0.101885,VALID,19.2129,VALID,33,VALID,0,
2001-09-13, 01:56:01,VALID,916.575,VALID,0,VALID,98.2938,VALID,-0.152827,VALID,19.2261,VALID,40,VALID,0.329728,
2001-09-13, 01:57:01,VALID,916.591,VALID,0,VALID,98.3014,VALID,-0.135847,VALID,19.2264,VALID,60,VALID,1.03594,
2001-09-13, 01:58:01,VALID,916.61,VALID,0,VALID,98.2378,VALID,-0.118866,VALID,19.1908,VALID,59,VALID,1.08532,
2001-09-13, 01:59:01,VALID,916.616,VALID,0,VALID,98.3421,VALID,-0.135847,VALID,19.1682,VALID,48,VALID,1.0207,
2001-09-13, 02:00:01,VALID,916.614,VALID,0,VALID,98.4642,VALID,-0.135847,VALID,19.1585,VALID,49,VALID,0.981771,
2001-09-13, 02:01:01,VALID,916.6,VALID,0,VALID,98.5659,VALID,0,VALID,19.1631,VALID,54,VALID,0.896484,
2001-09-13, 02:02:01,VALID,916.584,VALID,0,VALID,98.6816,VALID,0,VALID,19.1921,VALID,48,VALID,0.887952,
2001-09-13, 02:03:01,VALID,916.558,VALID,0,VALID,98.7515,VALID,0,VALID,19.2445,VALID,45,VALID,0.676172,
2001-09-13, 02:04:01,VALID,916.537,VALID,0,VALID,98.8011,VALID,0,VALID,19.2597,VALID,33,VALID,0.592348,
2001-09-13, 02:05:01,VALID,916.514,VALID,0,VALID,98.791,VALID,-0.0169808,VALID,19.2736,VALID,36,VALID,0.505273,
2001-09-13, 02:06:01,VALID,916.492,VALID,0,VALID,98.7261,VALID,-0.0169808,VALID,19.2219,VALID,46,VALID,0.920436,
2001-09-13, 02:07:01,VALID,916.476,VALID,0,VALID,98.7134,VALID,0,VALID,19.1792,VALID,54,VALID,1.19785,
2001-09-13, 02:08:01,VALID,916.476,VALID,0,VALID,98.777,VALID,0,VALID,19.1861,VALID,46,VALID,0.970152,
2001-09-13, 02:09:01,VALID,916.458,VALID,0,VALID,98.7973,VALID,0,VALID,19.173,VALID,56,VALID,0.798242,
2001-09-13, 02:10:01,VALID,916.421,VALID,0,VALID,98.7706,VALID,-0.0169808,VALID,19.1509,VALID,75,VALID,0.696957,
2001-09-13, 02:11:01,VALID,916.393,VALID,0,VALID,98.7579,VALID,-0.0169808,VALID,19.1218,VALID,79,VALID,0.478906,
2001-09-13, 02:12:01,VALID,916.367,VALID,0,VALID,98.7566,VALID,-0.0169808,VALID,19.083,VALID,87,VALID,0.571715,
2001-09-13, 02:13:00,VALID,916.352,VALID,0,VALID,98.763,VALID,0,VALID,19.0475,VALID,97,VALID,0.697656,
2001-09-13, 02:14:00,VALID,916.321,VALID,0,VALID,98.7757,VALID,-0.0169808,VALID,19.0055,VALID,97,VALID,0.672903,
2001-09-13, 02:15:00,VALID,916.302,VALID,0,VALID,98.8545,VALID,-0.0169808,VALID,18.9889,VALID,93,VALID,0.583594,
2001-09-13, 02:16:00,VALID,916.266,VALID,0,VALID,98.8851,VALID,-0.0679233,VALID,18.9864,VALID,84,VALID,0.411258,
2001-09-13, 02:17:00,VALID,916.246,VALID,0,VALID,98.8914,VALID,-0.0679233,VALID,18.9772,VALID,104,VALID,0.445313,
2001-09-13, 02:18:00,VALID,916.23,VALID,0,VALID,98.9194,VALID,-0.0679233,VALID,18.9409,VALID,112,VALID,0.427837,
2001-09-13, 02:19:00,VALID,916.22,VALID,0,VALID,98.9512,VALID,-0.0679233,VALID,18.9449,VALID,104,VALID,0.360352,
2001-09-13, 02:20:00,VALID,916.221,VALID,0,VALID,98.9677,VALID,-0.0509425,VALID,18.9416,VALID,80,VALID,0.56891,
2001-09-13, 02:21:00,VALID,916.221,VALID,0,VALID,98.8711,VALID,-0.0849042,VALID,18.8507,VALID,78,VALID,0.768429,
2001-09-13, 02:22:00,VALID,916.215,VALID,0,VALID,98.8978,VALID,-0.0679233,VALID,18.8348,VALID,87,VALID,0.711349,
2001-09-13, 02:23:00,VALID,916.207,VALID,0,VALID,98.955,VALID,-0.0339617,VALID,18.8221,VALID,99,VALID,0.6875,
2001-09-13, 02:24:00,VALID,916.203,VALID,0,VALID,99.0224,VALID,-0.0679233,VALID,18.8348,VALID,98,VALID,0.466747,
2001-09-13, 02:25:00,VALID,916.201,VALID,0,VALID,99.0669,VALID,-0.0679233,VALID,18.8321,VALID,85,VALID,0.674023,
2001-09-13, 02:26:00,VALID,916.196,VALID,0,VALID,99.0504,VALID,-0.0849042,VALID,18.8284,VALID,88,VALID,0.73088,
2001-09-13, 02:27:00,VALID,916.195,VALID,0,VALID,99.1203,VALID,-0.0339617,VALID,18.8351,VALID,107,VALID,0.710938,
2001-09-13, 02:28:00,VALID,916.196,VALID,0,VALID,99.189,VALID,-0.0849042,VALID,18.9031,VALID,125,VALID,0.616787,
2001-09-13, 02:29:00,VALID,916.176,VALID,0,VALID,99.1445,VALID,-0.101885,VALID,18.8999,VALID,131,VALID,0.655664,
2001-09-13, 02:30:00,VALID,916.165,VALID,0,VALID,99.1826,VALID,-0.0849042,VALID,18.9091,VALID,142,VALID,0.806949,
2001-09-13, 02:31:00,VALID,916.148,VALID,0,VALID,99.2093,VALID,-0.0849042,VALID,18.9481,VALID,107,VALID,0.616406,
2001-09-13, 02:32:00,VALID,916.132,VALID,0,VALID,99.2106,VALID,-0.101885,VALID,18.9516,VALID,99,VALID,0.66246,
2001-09-13, 02:33:00,VALID,916.117,VALID,0,VALID,99.1763,VALID,-0.101885,VALID,18.9714,VALID,103,VALID,0.547461,
2001-09-13, 02:34:00,VALID,916.101,VALID,0,VALID,99.1915,VALID,-0.0849042,VALID,18.9416,VALID,103,VALID,0.534745,
2001-09-13, 02:35:00,VALID,916.088,VALID,0,VALID,99.2106,VALID,-0.101885,VALID,18.9583,VALID,94,VALID,0.889063,
2001-09-13, 02:36:00,VALID,916.065,VALID,0,VALID,99.1763,VALID,-0.0679233,VALID,18.9483,VALID,99,VALID,0.427885,
2001-09-13, 02:37:00,VALID,916.047,VALID,0,VALID,99.1101,VALID,-0.0679233,VALID,18.8803,VALID,93,VALID,0.545703,
2001-09-13, 02:38:00,VALID,916.026,VALID,0,VALID,99.1101,VALID,-0.0849042,VALID,18.8284,VALID,92,VALID,0.229852,
2001-09-13, 02:39:00,VALID,916.002,VALID,0,VALID,99.1368,VALID,-0.0849042,VALID,18.8251,VALID,111,VALID,0.383203,
2001-09-13, 02:40:00,VALID,916.001,VALID,0,VALID,99.1483,VALID,-0.0679233,VALID,18.8291,VALID,125,VALID,0.623598,
2001-09-13, 02:41:00,VALID,916.002,VALID,0,VALID,99.208,VALID,-0.0679233,VALID,18.8254,VALID,140,VALID,0.342187,
2001-09-13, 02:42:00,VALID,915.999,VALID,0,VALID,99.1864,VALID,-0.101885,VALID,18.8353,VALID,139,VALID,0.00699013,
2001-09-13, 02:43:00,VALID,916.003,VALID,0,VALID,99.1089,VALID,-0.0679233,VALID,18.7772,VALID,108,VALID,0.362109,
2001-09-13, 02:44:00,VALID,916.016,VALID,0,VALID,99.1902,VALID,-0.101885,VALID,18.7677,VALID,109,VALID,0.697115,
2001-09-13, 02:45:00,VALID,916.031,VALID,0,VALID,99.2704,VALID,-0.0509425,VALID,18.8351,VALID,129,VALID,0.478906,
2001-09-13, 02:46:00,VALID,916.039,VALID,0,VALID,99.2869,VALID,-0.0849042,VALID,18.8805,VALID,93,VALID,0.497533,
2001-09-13, 02:47:00,VALID,916.052,VALID,0,VALID,99.1457,VALID,-0.101885,VALID,18.7705,VALID,62,VALID,0.751758,
2001-09-13, 02:48:00,VALID,916.054,VALID,0,VALID,99.0771,VALID,-0.0509425,VALID,18.6704,VALID,65,VALID,0.416466,
2001-09-13, 02:49:00,VALID,916.056,VALID,0,VALID,99.1406,VALID,-0.0849042,VALID,18.6574,VALID,82,VALID,0.312695,
2001-09-13, 02:50:00,VALID,916.074,VALID,0,VALID,99.2653,VALID,-0.0679233,VALID,18.7034,VALID,107,VALID,0.513569,
2001-09-13, 02:51:00,VALID,916.092,VALID,0,VALID,99.3721,VALID,-0.0679233,VALID,18.8293,VALID,120,VALID,0.617383,
2001-09-13, 02:52:00,VALID,916.108,VALID,0,VALID,99.3327,VALID,-0.101885,VALID,18.8681,VALID,156,VALID,0.453926,
2001-09-13, 02:53:00,VALID,916.114,VALID,0,VALID,99.3047,VALID,-0.0679233,VALID,18.8618,VALID,157,VALID,0.234766,
2001-09-13, 02:54:00,VALID,916.126,VALID,0,VALID,99.3123,VALID,-0.0339617,VALID,18.8676,VALID,140,VALID,0.261102,
2001-09-13, 02:55:00,VALID,916.137,VALID,0,VALID,99.3149,VALID,-0.0849042,VALID,18.8909,VALID,127,VALID,0.198633,
2001-09-13, 02:56:00,VALID,916.146,VALID,0,VALID,99.2742,VALID,-0.101885,VALID,18.8644,VALID,113,VALID,0.290865,
2001-09-13, 02:57:00,VALID,916.147,VALID,0,VALID,99.2818,VALID,-0.0679233,VALID,18.8681,VALID,111,VALID,0.261719,
2001-09-13, 02:58:00,VALID,916.159,VALID,0,VALID,99.2208,VALID,-0.0849042,VALID,18.8226,VALID,111,VALID,0.0285773,
2001-09-13, 02:59:00,VALID,916.16,VALID,0,VALID,99.2233,VALID,0,VALID,18.7991,VALID,111,VALID,0,
2001-09-13, 03:00:00,VALID,916.159,VALID,0,VALID,99.1864,VALID,0.0169808,VALID,18.7536,VALID,111,VALID,0,
2001-09-13, 03:01:00,VALID,916.168,VALID,0,VALID,99.1953,VALID,0,VALID,18.7253,VALID,118,VALID,0.0296875,
2001-09-13, 03:02:00,VALID,916.173,VALID,0,VALID,99.25,VALID,0,VALID,18.7223,VALID,152,VALID,0.20477,
2001-09-13, 03:03:00,VALID,916.162,VALID,0,VALID,99.2793,VALID,-0.0169808,VALID,18.7516,VALID,154,VALID,0.124023,
2001-09-13, 03:04:00,VALID,916.169,VALID,0,VALID,99.2271,VALID,0,VALID,18.7223,VALID,155,VALID,0,
2001-09-13, 03:05:00,VALID,916.166,VALID,0,VALID,99.0593,VALID,-0.0339617,VALID,18.532,VALID,155,VALID,0,
2001-09-13, 03:06:00,VALID,916.147,VALID,0,VALID,98.9703,VALID,0,VALID,18.4219,VALID,111,VALID,0.0762747,
2001-09-13, 03:07:00,VALID,916.136,VALID,0,VALID,98.8558,VALID,0,VALID,18.2893,VALID,29,VALID,0.510938,
2001-09-13, 03:08:00,VALID,916.143,VALID,0,VALID,98.7948,VALID,-0.0339617,VALID,18.1698,VALID,29,VALID,0.460136,
2001-09-13, 03:09:00,VALID,916.144,VALID,0,VALID,98.9436,VALID,0,VALID,18.1541,VALID,35,VALID,0.390039,
2001-09-13, 03:10:00,VALID,916.148,VALID,0,VALID,99.0427,VALID,0,VALID,18.1668,VALID,38,VALID,0.179688,
2001-09-13, 03:11:00,VALID,916.144,VALID,0,VALID,99.1228,VALID,-0.0169808,VALID,18.2056,VALID,38,VALID,0,
2001-09-13, 03:12:00,VALID,916.126,VALID,0,VALID,99.1101,VALID,-0.0169808,VALID,18.1929,VALID,38,VALID,0,
2001-09-13, 03:13:00,VALID,916.133,VALID,0,VALID,99.1076,VALID,0,VALID,18.1737,VALID,38,VALID,0,
2001-09-13, 03:14:00,VALID,916.122,VALID,0,VALID,99.2169,VALID,-0.0339617,VALID,18.2319,VALID,38,VALID,0,
2001-09-13, 03:15:00,VALID,916.113,VALID,0,VALID,99.2882,VALID,0,VALID,18.3384,VALID,38,VALID,0,
2001-09-13, 03:16:00,VALID,916.125,VALID,0,VALID,99.2983,VALID,-0.101885,VALID,18.3915,VALID,38,VALID,0,
2001-09-13, 03:17:00,VALID,916.124,VALID,0,VALID,99.3212,VALID,-0.101885,VALID,18.4918,VALID,38,VALID,0,
2001-09-13, 03:18:00,VALID,916.123,VALID,0,VALID,99.3695,VALID,-0.101885,VALID,18.585,VALID,38,VALID,0,
2001-09-13, 03:19:00,VALID,916.114,VALID,0,VALID,99.395,VALID,-0.118866,VALID,18.6598,VALID,38,VALID,0,
2001-09-13, 03:20:00,VALID,916.116,VALID,0,VALID,99.4102,VALID,-0.135847,VALID,18.7375,VALID,38,VALID,0,
2001-09-13, 03:21:00,VALID,916.089,VALID,0,VALID,99.3759,VALID,-0.118866,VALID,18.7599,VALID,38,VALID,0,
2001-09-13, 03:22:00,VALID,916.062,VALID,0,VALID,99.3352,VALID,-0.101885,VALID,18.7728,VALID,38,VALID,0,
2001-09-13, 03:23:00,VALID,916.05,VALID,0,VALID,99.292,VALID,-0.101885,VALID,18.7403,VALID,38,VALID,0,
2001-09-13, 03:24:00,VALID,916.041,VALID,0,VALID,99.2182,VALID,-0.135847,VALID,18.6819,VALID,38,VALID,0,
2001-09-13, 03:25:00,VALID,916.045,VALID,0,VALID,99.1279,VALID,-0.118866,VALID,18.5915,VALID,38,VALID,0,
2001-09-13, 03:26:00,VALID,916.055,VALID,0,VALID,99.1419,VALID,-0.118866,VALID,18.54,VALID,38,VALID,0,
2001-09-13, 03:27:00,VALID,916.046,VALID,0,VALID,99.2182,VALID,-0.101885,VALID,18.5555,VALID,38,VALID,0,
2001-09-13, 03:28:00,VALID,916.052,VALID,0,VALID,99.0046,VALID,-0.101885,VALID,18.4432,VALID,38,VALID,0,
2001-09-13, 03:29:00,VALID,916.03,VALID,0,VALID,98.454,VALID,-0.101885,VALID,18.1204,VALID,27,VALID,0.34375,
2001-09-13, 03:30:00,VALID,916.023,VALID,0,VALID,98.5277,VALID,-0.101885,VALID,17.9421,VALID,20,VALID,1.12952,
2001-09-13, 03:31:00,VALID,916.004,VALID,0,VALID,98.9601,VALID,-0.0169808,VALID,18.0185,VALID,21,VALID,0.935156,
2001-09-13, 03:32:00,VALID,916,VALID,0,VALID,99.0453,VALID,-0.0339617,VALID,18.0612,VALID,42,VALID,0.631611,
2001-09-13, 03:33:00,VALID,915.995,VALID,0,VALID,99.1267,VALID,0,VALID,18.0838,VALID,58,VALID,0.641406,
2001-09-13, 03:34:00,VALID,915.988,VALID,0,VALID,99.1915,VALID,-0.0169808,VALID,18.1191,VALID,52,VALID,0.705387,